This is the latest recevied weather packets stored in our database for station/object KF0FSA. If no packets are shown the sender has not sent any weather packets the latest 10 day(s).
| Time | Temp. | Humidity | Pressure | Rain* | Wind** | Luminosity | Snow |
|---|---|---|---|---|---|---|---|
| 1777266229 | 10.56° C | 100% | 950.8 hPa | 0 mm | - | 0 W/m² | - |
| 1777265929 | 10.56° C | 100% | 950.7 hPa | 0 mm | - | 0 W/m² | - |
| 1777265629 | 10.56° C | 100% | 950.8 hPa | 0 mm | - | 0 W/m² | - |
| 1777265326 | 10.56° C | 99% | 951 hPa | 0 mm | - | 0 W/m² | - |
| 1777265027 | 10.56° C | 99% | 951.1 hPa | 0 mm | - | 0 W/m² | - |
| 1777264726 | 10.56° C | 99% | 951.3 hPa | 0 mm | - | 0 W/m² | - |
| 1777264426 | 10.56° C | 99% | 951.2 hPa | 0 mm | - | 0 W/m² | - |
| 1777264127 | 10.56° C | 99% | 951.3 hPa | 0 mm | - | 0 W/m² | - |
| 1777263826 | 10.56° C | 99% | 951.4 hPa | 0 mm | - | 0 W/m² | - |
| 1777263527 | 10.56° C | 99% | 951.4 hPa | 0 mm | - | 0 W/m² | - |
| 1777263227 | 10.56° C | 99% | 951.6 hPa | 0 mm | - | 0 W/m² | - |
| 1777262927 | 10.56° C | 99% | 951.7 hPa | 0.25 mm | - | 0 W/m² | - |
| 1777262627 | 10.56° C | 99% | 951.6 hPa | 0.51 mm | - | 0 W/m² | - |
| 1777262327 | 10.56° C | 99% | 951.7 hPa | 0.51 mm | - | 0 W/m² | - |
| 1777262027 | 10.56° C | 100% | 951.8 hPa | 0.51 mm | - | 0 W/m² | - |
| 1777261727 | 10.56° C | 100% | 951.9 hPa | 0.51 mm | - | 0 W/m² | - |
| 1777261428 | 10.56° C | 100% | 951.8 hPa | 1.02 mm | - | 0 W/m² | - |
| 1777261127 | 10.56° C | 100% | 951.9 hPa | 1.02 mm | - | 0 W/m² | - |
| 1777260952 | 10° C | 99% | 952 hPa | 1.27 mm | - | 0 W/m² | - |
| 1777260525 | 10° C | 99% | 952 hPa | 2.29 mm | - | 0 W/m² | - |
| 1777260225 | 10° C | 99% | 952.1 hPa | 2.79 mm | - | 0 W/m² | - |
| 1777259925 | 10° C | 99% | 952.1 hPa | 2.79 mm | - | 0 W/m² | - |
| 1777259624 | 10° C | 99% | 952.2 hPa | 3.05 mm | - | 0 W/m² | - |
| 1777259325 | 10° C | 99% | 952.1 hPa | 3.3 mm | - | 0 W/m² | - |
| 1777259025 | 10° C | 99% | 952.2 hPa | 3.3 mm | - | 0 W/m² | - |
* Rain latest hour (hover to see other rain measurements)
** Current wind speed in m/s (hover to see current wind gust speed)